EZY146C EGJJ-EGCC

Flight info

Callsign EZY146C
Flight time 0h 49m
Altitude 340
Route EGJJ/08 BENI3B BENIX G27 AKIKI UN867 AVANT UM184 HEMEL T420 ELVOS ELVO1M EGCC/05R
Aircraft A320/M-VGD/N

Departure

Time 2026-05-05 07:44
Airport Jersey Airport (EGJJ)

Arrival

Time 2026-05-05 08:34
Airport Manchester Airport (EGCC)
Time Latitude Longitude Altitude Speed Heading
2026-05-05 07:28 49.20475 -2.19569 281 ft 0 kts
2026-05-05 07:38 49.20471 -2.19570 281 ft 2 kts
2026-05-05 07:38 49.20455 -2.19574 284 ft 2 kts
2026-05-05 07:39 49.20438 -2.19573 284 ft 2 kts 311°
2026-05-05 07:39 49.20433 -2.19562 284 ft 0 kts 276°
2026-05-05 07:41 49.20433 -2.19565 284 ft 3 kts 276°
2026-05-05 07:41 49.20442 -2.19657 281 ft 10 kts 280°
2026-05-05 07:42 49.20440 -2.19785 281 ft 14 kts 265°
2026-05-05 07:42 49.20477 -2.19920 280 ft 18 kts 342°
2026-05-05 07:42 49.20541 -2.20091 280 ft 22 kts 286°
2026-05-05 07:42 49.20589 -2.20344 280 ft 26 kts 287°
2026-05-05 07:43 49.20623 -2.20564 280 ft 19 kts 270°
2026-05-05 07:43 49.20670 -2.20694 279 ft 13 kts 353°
2026-05-05 07:43 49.20708 -2.20626 278 ft 7 kts 82°
2026-05-05 07:43 49.20708 -2.20624 278 ft 0 kts 82°
2026-05-05 07:44 49.20711 -2.20599 279 ft 19 kts 82°
2026-05-05 07:44 49.20765 -2.19956 281 ft 97 kts 82°
2026-05-05 07:44 49.20877 -2.18637 396 ft 143 kts 82°
2026-05-05 07:44 49.20959 -2.17160 1129 ft 138 kts 82°
2026-05-05 07:45 49.21051 -2.15707 1839 ft 140 kts 78°
2026-05-05 07:45 49.21205 -2.14129 2212 ft 160 kts 77°
2026-05-05 07:45 49.21384 -2.12351 2638 ft 178 kts 78°
2026-05-05 07:45 49.21577 -2.10381 3060 ft 198 kts 78°
2026-05-05 07:46 49.21782 -2.08195 3559 ft 219 kts 79°
2026-05-05 07:46 49.22098 -2.05824 4175 ft 240 kts 69°
2026-05-05 07:46 49.22846 -2.03501 5086 ft 248 kts 55°
2026-05-05 07:46 49.23963 -2.01475 6096 ft 252 kts 47°
2026-05-05 07:47 49.25151 -1.99474 7067 ft 257 kts 47°
2026-05-05 07:47 49.26365 -1.97425 8019 ft 263 kts 47°
2026-05-05 07:47 49.27609 -1.95327 8996 ft 269 kts 47°
2026-05-05 07:47 49.28878 -1.93183 10051 ft 273 kts 47°
2026-05-05 07:48 49.30197 -1.90945 10635 ft 295 kts 47°
2026-05-05 07:48 49.31630 -1.88511 11051 ft 320 kts 47°
2026-05-05 07:48 49.33163 -1.85903 11508 ft 335 kts 48°
2026-05-05 07:48 49.34741 -1.83216 12172 ft 343 kts 48°
2026-05-05 07:49 49.36342 -1.80483 12966 ft 346 kts 49°
2026-05-05 07:49 49.37973 -1.77696 13641 ft 353 kts 49°
2026-05-05 07:49 49.39628 -1.74869 14293 ft 359 kts 49°
2026-05-05 07:49 49.41307 -1.71996 14970 ft 363 kts 49°
2026-05-05 07:50 49.42982 -1.69123 15628 ft 368 kts 49°
2026-05-05 07:50 49.44698 -1.66180 16309 ft 372 kts 50°
2026-05-05 07:50 49.46432 -1.63205 16977 ft 376 kts 50°
2026-05-05 07:50 49.48190 -1.60183 17653 ft 381 kts 50°
2026-05-05 07:51 49.49960 -1.57134 18310 ft 385 kts 50°
2026-05-05 07:51 49.51753 -1.54041 18872 ft 389 kts 51°
2026-05-05 07:51 49.53562 -1.50921 19430 ft 392 kts 50°
2026-05-05 07:51 49.55395 -1.47781 20001 ft 396 kts 48°
2026-05-05 07:52 49.57504 -1.45019 20564 ft 402 kts 36°
2026-05-05 07:52 49.59109 -1.43562 20930 ft 406 kts 28°
2026-05-05 07:52 49.61755 -1.41977 21465 ft 412 kts 17°
2026-05-05 07:52 49.64594 -1.41188 22005 ft 417 kts
2026-05-05 07:53 49.67514 -1.40924 22522 ft 421 kts
2026-05-05 07:53 49.70454 -1.40670 23051 ft 424 kts
2026-05-05 07:53 49.73409 -1.40409 23556 ft 427 kts
2026-05-05 07:53 49.76399 -1.40144 23925 ft 432 kts
2026-05-05 07:54 49.79386 -1.39880 24294 ft 437 kts
2026-05-05 07:54 49.82428 -1.39611 24680 ft 440 kts
2026-05-05 07:54 49.85508 -1.39339 25060 ft 444 kts
2026-05-05 07:54 49.88609 -1.39064 25437 ft 447 kts
2026-05-05 07:55 49.91724 -1.38785 25807 ft 451 kts
2026-05-05 07:55 49.94868 -1.38500 26177 ft 454 kts
2026-05-05 07:55 49.98042 -1.38217 26530 ft 458 kts
2026-05-05 07:55 50.01225 -1.37752 26876 ft 461 kts
2026-05-05 07:56 50.04401 -1.36971 27227 ft 464 kts 10°
2026-05-05 07:56 50.07605 -1.36175 27585 ft 467 kts 10°
2026-05-05 07:56 50.10790 -1.35381 27929 ft 470 kts 10°
2026-05-05 07:56 50.14028 -1.34570 28262 ft 473 kts 11°
2026-05-05 07:57 50.17300 -1.33746 28583 ft 477 kts 10°
2026-05-05 07:57 50.20581 -1.32924 28876 ft 480 kts 10°
2026-05-05 07:57 50.23891 -1.32100 29171 ft 483 kts 10°
2026-05-05 07:57 50.27229 -1.31266 29467 ft 487 kts 10°
2026-05-05 07:58 50.30582 -1.30423 29768 ft 490 kts 10°
2026-05-05 07:58 50.33959 -1.29576 30056 ft 493 kts 10°
2026-05-05 07:58 50.37355 -1.28724 30341 ft 494 kts 10°
2026-05-05 07:58 50.40745 -1.27872 30764 ft 492 kts 10°
2026-05-05 07:59 50.44123 -1.27024 31256 ft 488 kts
2026-05-05 07:59 50.47453 -1.26078 31744 ft 485 kts 14°
2026-05-05 07:59 50.50650 -1.24465 32218 ft 481 kts 23°
2026-05-05 07:59 50.53630 -1.22143 32675 ft 477 kts 32°
2026-05-05 08:00 50.56396 -1.19413 33108 ft 474 kts 33°
2026-05-05 08:00 50.59180 -1.16641 33542 ft 473 kts 33°
2026-05-05 08:00 50.61955 -1.13878 33909 ft 472 kts 33°
2026-05-05 08:00 50.64736 -1.11114 33980 ft 470 kts 32°
2026-05-05 08:01 50.70224 -1.05637 33986 ft 466 kts 33°
2026-05-05 08:01 50.75703 -1.00148 33988 ft 465 kts 33°
2026-05-05 08:02 50.81177 -0.94806 33991 ft 465 kts 27°
2026-05-05 08:02 50.87250 -0.91135 33984 ft 467 kts 17°
2026-05-05 08:03 50.93407 -0.87960 33984 ft 464 kts 17°
2026-05-05 08:03 50.99513 -0.84792 33991 ft 463 kts 17°
2026-05-05 08:04 51.05642 -0.81610 33994 ft 463 kts 17°
2026-05-05 08:04 51.11780 -0.78402 33999 ft 463 kts 17°
2026-05-05 08:05 51.17907 -0.75195 34002 ft 463 kts 17°
2026-05-05 08:05 51.24023 -0.72000 34001 ft 463 kts 17°
2026-05-05 08:06 51.30149 -0.68783 34002 ft 464 kts 18°
2026-05-05 08:06 51.36281 -0.65545 33998 ft 462 kts 18°
2026-05-05 08:07 51.42386 -0.62309 34001 ft 461 kts 18°
2026-05-05 08:07 51.48482 -0.59084 34002 ft 461 kts 18°
2026-05-05 08:08 51.54586 -0.55848 34002 ft 461 kts 18°
2026-05-05 08:08 51.60637 -0.52621 34002 ft 460 kts 18°
2026-05-05 08:09 51.66722 -0.49363 34001 ft 460 kts 18°
2026-05-05 08:09 51.72806 -0.46123 34002 ft 460 kts 17°
2026-05-05 08:10 51.75895 -0.45042 34002 ft 459 kts
2026-05-05 08:10 51.79086 -0.44807 34002 ft 459 kts 356°
2026-05-05 08:10 51.85300 -0.46955 34002 ft 458 kts 336°
2026-05-05 08:11 51.90838 -0.51927 34002 ft 458 kts 328°
2026-05-05 08:11 51.96292 -0.57255 34003 ft 458 kts 328°
2026-05-05 08:12 52.01755 -0.62589 34004 ft 458 kts 328°
2026-05-05 08:12 52.07206 -0.67938 34002 ft 457 kts 328°
2026-05-05 08:13 52.12659 -0.73299 34002 ft 457 kts 328°
2026-05-05 08:13 52.18074 -0.78638 34004 ft 457 kts 328°
2026-05-05 08:14 52.23514 -0.84029 33707 ft 456 kts 328°
2026-05-05 08:14 52.26237 -0.86730 32850 ft 459 kts 327°
2026-05-05 08:14 52.28989 -0.89461 31731 ft 465 kts 327°
2026-05-05 08:15 52.31766 -0.92217 30696 ft 468 kts 326°
2026-05-05 08:15 52.34537 -0.94975 29414 ft 474 kts 326°
2026-05-05 08:15 52.37355 -0.97785 28403 ft 473 kts 326°
2026-05-05 08:15 52.40133 -1.00555 27783 ft 464 kts 327°
2026-05-05 08:16 52.42873 -1.03291 27017 ft 458 kts 327°
2026-05-05 08:16 52.45571 -1.05994 26294 ft 452 kts 327°
2026-05-05 08:16 52.48241 -1.08677 25570 ft 447 kts 327°
2026-05-05 08:16 52.50883 -1.11334 24857 ft 442 kts 327°
2026-05-05 08:17 52.53500 -1.13974 24156 ft 439 kts 326°
2026-05-05 08:17 52.56061 -1.16561 23447 ft 435 kts 326°
2026-05-05 08:17 52.58630 -1.19154 22718 ft 430 kts 326°
2026-05-05 08:17 52.61161 -1.21705 22094 ft 424 kts 326°
2026-05-05 08:18 52.63664 -1.24228 21490 ft 418 kts 326°
2026-05-05 08:18 52.66132 -1.26720 20915 ft 412 kts 326°
2026-05-05 08:18 52.68564 -1.29184 20349 ft 406 kts 326°
2026-05-05 08:18 52.70957 -1.31613 19801 ft 402 kts 326°
2026-05-05 08:19 52.73335 -1.34032 19194 ft 400 kts 326°
2026-05-05 08:19 52.75673 -1.36419 18607 ft 398 kts 326°
2026-05-05 08:19 52.78017 -1.38818 17979 ft 395 kts 325°
2026-05-05 08:19 52.80342 -1.41195 17384 ft 390 kts 326°
2026-05-05 08:20 52.82647 -1.43549 16809 ft 386 kts 326°
2026-05-05 08:20 52.84919 -1.45873 16242 ft 382 kts 326°
2026-05-05 08:20 52.87167 -1.48178 15674 ft 378 kts 326°
2026-05-05 08:20 52.89398 -1.50471 15116 ft 375 kts 326°
2026-05-05 08:21 52.91577 -1.52713 14578 ft 372 kts 326°
2026-05-05 08:21 52.93774 -1.54976 14024 ft 370 kts 326°
2026-05-05 08:21 52.95948 -1.57221 13441 ft 367 kts 326°
2026-05-05 08:21 52.98101 -1.59444 12896 ft 362 kts 327°
2026-05-05 08:22 53.00226 -1.61642 12374 ft 357 kts 326°
2026-05-05 08:22 53.02307 -1.63793 12124 ft 345 kts 327°
2026-05-05 08:22 53.04306 -1.65870 11974 ft 330 kts 324°
2026-05-05 08:22 53.06029 -1.68250 11863 ft 315 kts 313°
2026-05-05 08:23 53.07418 -1.70901 11746 ft 303 kts 309°
2026-05-05 08:23 53.08762 -1.73518 11593 ft 293 kts 309°
2026-05-05 08:23 53.10076 -1.76063 11347 ft 288 kts 309°
2026-05-05 08:23 53.11375 -1.78575 11095 ft 285 kts 310°
2026-05-05 08:24 53.12669 -1.81072 10820 ft 284 kts 310°
2026-05-05 08:24 53.13955 -1.83564 10451 ft 284 kts 309°
2026-05-05 08:24 53.15242 -1.86065 10042 ft 285 kts 309°
2026-05-05 08:24 53.16530 -1.88572 9706 ft 281 kts 309°
2026-05-05 08:25 53.17790 -1.91031 9394 ft 277 kts 309°
2026-05-05 08:25 53.19035 -1.93470 9010 ft 275 kts 309°
2026-05-05 08:25 53.20278 -1.95914 8615 ft 274 kts 309°
2026-05-05 08:25 53.21485 -1.98289 8245 ft 272 kts 309°
2026-05-05 08:26 53.22710 -2.00698 8047 ft 270 kts 309°
2026-05-05 08:26 53.23931 -2.03091 8053 ft 272 kts 311°
2026-05-05 08:26 53.25449 -2.04957 8044 ft 274 kts 337°
2026-05-05 08:26 53.27303 -2.05500 7737 ft 272 kts
2026-05-05 08:27 53.29176 -2.05009 7315 ft 272 kts 12°
2026-05-05 08:27 53.30985 -2.04032 6862 ft 274 kts 20°
2026-05-05 08:27 53.32758 -2.02864 6445 ft 273 kts 20°
2026-05-05 08:27 53.34520 -2.01675 6018 ft 272 kts 20°
2026-05-05 08:28 53.36276 -2.00500 5608 ft 270 kts 21°
2026-05-05 08:28 53.38015 -1.99357 5219 ft 267 kts 21°
2026-05-05 08:28 53.39739 -1.98240 4817 ft 265 kts 20°
2026-05-05 08:28 53.41438 -1.97200 4422 ft 261 kts 17°
2026-05-05 08:29 53.43171 -1.96341 4036 ft 258 kts 15°
2026-05-05 08:29 53.44907 -1.95688 3667 ft 254 kts
2026-05-05 08:29 53.46580 -1.96357 3490 ft 250 kts 329°
2026-05-05 08:30 53.47644 -2.01102 3492 ft 221 kts 253°
2026-05-05 08:30 53.46940 -2.03324 3502 ft 214 kts 236°
2026-05-05 08:30 53.46029 -2.05332 3396 ft 216 kts 233°
2026-05-05 08:30 53.45088 -2.07294 3150 ft 216 kts 233°
2026-05-05 08:31 53.44140 -2.09267 2855 ft 217 kts 233°
2026-05-05 08:31 53.43191 -2.11246 2568 ft 218 kts 233°
2026-05-05 08:31 53.42237 -2.13232 2256 ft 219 kts 233°
2026-05-05 08:31 53.41312 -2.15159 1961 ft 210 kts 233°
2026-05-05 08:32 53.40419 -2.17015 1695 ft 199 kts 233°
2026-05-05 08:32 53.39583 -2.18753 1426 ft 184 kts 233°
2026-05-05 08:32 53.38808 -2.20363 1183 ft 170 kts 234°
2026-05-05 08:32 53.38109 -2.21814 940 ft 152 kts 234°
2026-05-05 08:33 53.37476 -2.23136 701 ft 139 kts 234°
2026-05-05 08:33 53.36891 -2.24383 523 ft 135 kts 233°
2026-05-05 08:33 53.36302 -2.25590 352 ft 133 kts 233°
2026-05-05 08:33 53.35733 -2.26775 270 ft 121 kts 232°
2026-05-05 08:34 53.35310 -2.27640 255 ft 58 kts 230°
2026-05-05 08:34 53.35251 -2.27945 245 ft 25 kts 263°
2026-05-05 08:34 53.35233 -2.28197 235 ft 16 kts 285°
2026-05-05 08:34 53.35277 -2.28223 237 ft 4 kts 35°
2026-05-05 08:35 53.35322 -2.28203 236 ft 17 kts 15°
2026-05-05 08:35 53.35486 -2.28127 239 ft 26 kts 21°